Temperature
18 19 19 19 19 19 19 19 19 19 19 19 19 19 19 19 19 18 18 18 18 18 18 18 18 18 18 18 18 18 18 17 17 17 17 17 17 17 17 17 17 17 17
19 19 19 19 19 19 19 19 19 19 19 19 19 19 19 19 19 18 18 18 18 18 18 18 18 18 18 18 18 18 17 17 17 17 17 17 17 17 17 17 17 17 17
19 19 19 19 19 19 19 19 19 19 19 19 19 19 19 19 18 18 18 18 18 18 18 18 18 18 18 18 18 17 17 17 17 17 17 17 17 17 17 17 17 17 17
20 19 19 19 19 19 19 19 19 19 19 19 19 19 19 18 18 18 18 18 18 18 18 18 18 18 18 17 17 17 17 17 17 17 17 17 17 17 17 17 16 16 16
20 19 19 19 19 19 19 19 19 19 19 19 19 19 19 18 18 18 18 18 18 18 18 18 18 18 17 17 17 17 17 17 17 17 17 17 17 17 17 16 16 16 16
20 19 19 19 19 19 19 19 19 19 19 19 19 19 18 18 18 18 18 18 18 18 18 17 17 17 17 17 17 17 17 17 17 17 17 17 17 17 17 17 16 16 16
20 19 19 19 19 19 19 19 19 19 19 19 19 18 18 18 18 18 18 18 18 18 18 17 17 17 17 17 17 17 17 17 17 17 17 17 17 17 17 17 17 16 16
20 19 19 19 19 19 19 19 19 19 19 19 19 19 19 18 18 18 18 18 18 18 17 17 17 17 17 17 17 17 17 17 17 17 17 17 17 17 17 17 16 16 16
20 19 19 19 19 19 19 19 19 19 19 19 18 18 18 18 18 18 18 18 18 18 17 17 17 17 17 17 17 17 17 17 17 17 17 17 17 17 17 17 16 16 16
19 19 19 19 19 19 19 19 19 19 18 18 18 18 18 18 18 18 18 18 18 17 17 17 17 17 17 17 17 17 17 17 17 17 17 17 17 17 17 17 17 16 16
19 19 19 19 19 19 19 19 18 18 18 18 18 18 18 18 18 18 18 18 18 17 17 17 17 17 17 17 17 17 17 17 17 17 17 17 17 17 17 17 17 16 16
20 19 19 19 19 19 19 19 18 18 18 18 18 18 18 18 18 18 18 18 18 17 17 17 17 17 17 17 17 17 17 17 17 17 17 17 17 17 17 17 17 17 16
20 20 20 19 19 19 19 19 19 18 18 18 18 18 18 18 18 18 18 18 18 17 17 17 17 17 17 17 17 17 17 17 17 17 17 17 17 17 17 17 17 17 17
20 20 20 20 19 19 19 19 19 18 18 18 18 18 18 18 18 18 18 18 18 18 17 17 17 17 17 17 17 17 17 17 17 17 17 17 17 17 17 17 17 17 16
21 20 20 20 20 19 19 19 19 19 19 18 18 18 18 18 18 18 18 18 18 18 17 17 17 17 17 17 17 17 17 17 17 17 17 17 17 17 17 17 17 17 16
21 21 20 20 20 19 19 19 19 19 19 18 18 18 18 18 18 18 18 18 18 18 17 17 17 17 17 17 17 17 17 17 17 17 17 17 17 17 17 17 17 16 16
21 21 20 20 20 19 19 19 19 19 19 18 18 18 18 18 18 18 17 18 18 17 17 17 17 17 17 17 17 17 17 17 17 17 17 17 17 17 16 16 16 16 16
21 21 20 20 20 19 19 19 19 19 18 18 18 18 18 18 18 17 17 17 17 17 17 17 17 17 17 17 17 17 17 17 17 17 17 17 17 16 16 16 16 16 16
21 21 20 20 20 19 19 19 18 18 18 18 18 18 18 18 18 17 17 17 17 17 17 17 17 17 17 17 17 17 17 17 17 17 17 17 16 16 16 16 16 16 16
21 21 20 20 20 19 19 18 18 18 18 18 18 18 18 18 18 17 17 17 17 17 17 17 17 17 17 17 17 17 17 17 17 17 17 16 16 16 16 16 16 16 16
21 21 20 20 20 19 19 19 18 18 18 18 18 18 18 18 18 17 17 17 17 17 17 17 17 17 17 17 17 17 17 17 17 17 17 17 17 17 16 16 16 16 16
21 21 21 20 20 19 19 19 18 18 18 18 18 18 18 18 18 17 18 17 17 17 17 17 17 17 17 17 17 17 17 17 17 17 17 17 17 17 17 17 16 16 16
21 21 21 20 20 19 19 19 18 18 18 18 18 18 18 18 18 18 17 17 17 17 17 17 17 17 17 17 17 17 17 17 17 17 17 17 17 17 17 17 17 16 16
21 21 21 20 20 19 19 18 18 18 18 18 18 18 18 18 18 18 17 17 17 17 17 17 17 17 17 17 17 17 17 17 17 17 17 17 17 17 17 17 17 17 17
21 21 20 20 20 19 19 18 18 18 18 18 18 18 18 18 18 18 17 17 17 17 17 17 17 17 17 17 17 17 17 17 17 17 17 18 18 18 17 17 17 17 17
21 20 20 20 19 19 19 18 18 18 18 18 18 18 18 18 18 18 17 17 17 17 17 17 17 17 17 17 17 17 17 17 17 17 17 17 18 18 18 17 17 17 17
Wind_Speed
6 9 15 15 16 16 17 18 18 19 19 19 19 18 18 18 17 17 17 17 17 17 17 18 18 18 18 18 18 18 17 17 18 18 18 18 18 18 19 19 18 17 18
9 13 16 16 16 16 17 17 18 18 18 18 18 18 17 17 16 16 16 16 17 17 18 18 18 18 18 18 18 17 17 17 18 18 18 17 18 18 18 17 17 16 18
11 13 16 16 16 16 16 16 17 17 17 17 17 17 17 16 16 16 16 16 17 17 18 18 18 18 18 17 17 17 17 17 17 18 16 15 16 17 17 17 17 17 17
12 13 15 17 16 16 16 16 16 16 16 16 16 16 16 16 16 16 16 16 17 17 17 17 17 17 17 16 16 16 16 17 17 16 13 13 14 16 17 16 17 17 17
10 13 16 17 16 16 15 15 15 15 15 15 15 15 15 15 15 15 15 16 16 16 17 17 17 16 16 15 15 15 15 15 16 14 13 12 13 15 16 16 17 17 17
9 12 15 17 16 15 15 14 14 14 14 14 14 14 14 14 14 15 15 15 15 15 15 15 15 15 14 14 13 14 15 15 14 12 12 12 12 15 16 16 16 16 16
8 10 14 16 15 15 14 14 13 13 13 13 13 13 14 14 14 14 14 14 14 14 15 14 14 14 13 12 13 14 15 15 13 12 11 11 12 14 15 15 15 15 15
8 9 13 16 15 14 14 13 13 13 13 12 12 12 13 13 13 13 13 13 13 13 13 13 13 12 12 11 12 14 15 14 12 11 11 11 13 14 15 15 15 15 14
7 7 9 12 13 14 13 13 12 12 12 12 12 12 12 12 12 12 12 12 12 12 12 12 11 11 10 11 13 13 13 13 11 10 10 10 12 13 14 14 14 14 13
6 5 6 8 10 10 11 12 12 12 11 11 11 11 11 11 11 11 10 11 11 11 11 10 10 10 10 11 11 12 13 12 10 9 8 10 12 12 13 13 13 13 13
7 5 5 6 7 8 9 11 12 11 11 10 10 10 9 8 8 8 9 9 10 10 10 9 9 9 9 10 10 12 11 9 9 8 7 10 11 11 12 12 12 12 12
10 8 5 5 6 7 8 8 8 8 8 8 7 8 8 7 7 6 7 8 8 8 8 8 8 8 8 8 9 10 9 9 8 7 7 10 10 11 11 11 11 11 11
10 10 7 6 6 6 5 7 6 6 6 7 7 8 8 6 5 4 4 4 5 6 6 6 6 6 6 6 6 7 8 8 7 7 8 9 10 10 10 10 10 10 10
10 10 8 6 6 6 5 5 6 5 5 5 6 8 7 5 3 3 3 3 3 4 4 5 5 4 5 5 6 7 8 7 7 7 8 9 9 9 9 9 9 9 9
10 10 9 8 7 6 5 5 6 5 6 6 7 7 8 5 3 3 2 3 3 3 3 3 4 3 3 4 5 6 7 7 8 7 7 9 10 9 9 9 9 9 9
11 10 9 8 7 6 5 4 5 6 7 7 7 8 9 7 5 4 3 3 2 3 3 4 3 3 2 3 3 5 6 7 7 7 7 8 10 10 10 9 9 9 9
11 10 10 10 8 7 6 6 6 7 7 6 7 9 9 9 8 6 3 3 3 4 4 3 3 2 2 2 2 4 5 6 7 7 7 7 8 9 10 10 10 10 10
9 10 10 10 10 9 7 6 5 7 7 7 8 9 10 11 10 7 5 4 5 5 4 3 2 2 1 2 2 2 3 4 6 7 7 7 7 7 9 10 10 10 10
11 11 11 10 10 10 8 6 5 6 7 7 8 8 10 11 11 9 6 5 6 4 3 3 2 2 2 2 2 1 1 2 4 6 7 8 8 8 8 9 11 11 11
10 10 10 10 10 9 6 4 3 3 4 6 8 9 11 11 12 10 7 7 7 4 3 3 3 2 2 3 2 1 0 2 3 4 6 7 8 9 9 9 10 11 12
9 9 10 10 9 7 5 5 4 4 4 4 6 10 11 12 12 10 6 6 6 5 5 5 3 3 2 2 2 1 1 1 3 4 5 6 8 10 10 11 10 10 10
10 10 11 11 10 9 7 5 3 3 3 4 4 7 11 12 12 11 8 7 7 5 5 5 4 3 2 3 3 2 1 2 2 4 4 6 7 8 10 11 12 12 12
9 10 10 9 9 8 7 4 3 3 2 2 4 5 8 11 12 11 10 8 7 7 7 7 6 6 4 3 2 4 3 4 2 2 3 5 6 6 8 10 12 13 13
8 7 7 8 8 7 8 7 7 6 5 6 5 5 5 8 10 11 10 10 8 7 7 7 7 5 5 4 2 2 2 3 3 1 2 3 5 6 7 7 10 12 13
6 7 7 7 7 7 8 9 7 5 4 3 3 4 5 5 7 9 10 9 8 7 7 7 7 6 5 5 4 3 2 1 2 2 3 2 2 4 5 6 8 10 12
4 5 6 7 6 7 8 8 8 7 5 5 5 5 4 4 4 6 8 7 7 6 7 7 7 8 7 6 5 4 4 3 4 3 4 3 3 3 3 4 6 7 10
Wind_Direction
149 149 136 127 120 115 111 108 108 108 110 110 111 111 111 110 109 108 108 107 106 105 104 103 104 105 105 104 104 104 104 105 106 106 106 105 105 105 104 104 104 105 109
143 146 139 132 125 120 116 113 112 111 111 112 112 112 112 111 111 111 110 108 107 106 106 106 106 106 106 105 104 103 104 104 105 106 105 105 105 105 106 106 106 109 109
136 141 139 135 129 125 121 118 116 114 114 114 114 114 114 114 114 114 112 109 107 107 107 108 108 108 107 106 105 104 104 104 103 102 100 101 105 106 107 108 108 108 109
135 138 141 139 133 129 125 122 118 117 116 115 116 116 116 116 115 114 112 110 109 108 109 109 109 110 109 108 108 108 107 105 103 101 96 99 104 106 107 107 108 109 110
131 138 146 141 138 134 130 126 122 120 119 118 118 118 117 116 115 114 113 112 111 110 111 111 111 112 112 111 112 112 110 107 104 100 95 96 102 108 108 107 109 110 110
128 140 149 144 142 138 134 130 127 125 122 120 119 120 119 118 117 116 115 113 113 113 112 112 113 112 112 112 115 117 113 110 105 100 98 100 106 111 110 109 109 111 110
130 141 150 147 145 142 138 135 133 130 127 125 123 122 122 122 121 120 117 116 115 115 114 113 114 113 113 114 117 119 116 115 110 105 103 105 111 113 112 110 112 113 113
134 138 148 148 147 146 144 141 139 136 133 130 128 126 125 125 124 123 121 120 118 117 117 116 114 113 110 114 121 123 122 121 117 112 109 112 118 118 116 113 113 114 115
126 129 137 148 151 151 149 146 144 141 138 135 133 132 130 129 129 127 125 123 121 120 119 117 114 110 109 114 120 125 127 125 121 120 118 118 121 120 120 119 118 118 118
124 126 130 138 144 147 151 151 150 146 143 141 140 139 138 136 133 130 127 127 125 124 123 120 114 109 108 115 124 128 130 127 124 121 123 129 130 128 127 125 123 122 122
149 143 137 137 139 144 152 158 156 153 151 148 149 144 133 126 127 128 134 135 131 129 127 124 116 109 107 117 126 132 129 131 130 129 133 139 138 136 134 132 130 129 127
170 167 153 146 145 149 159 153 148 149 149 144 142 133 127 127 130 133 142 142 139 134 130 124 116 108 103 112 121 127 132 138 139 142 147 148 145 142 140 139 137 135 134
173 174 168 160 156 155 148 143 140 138 139 140 143 141 138 133 129 125 127 130 130 128 117 112 105 104 111 120 124 134 143 146 151 155 160 158 154 152 151 150 147 144 143
172 180 172 166 161 162 155 149 147 148 150 153 155 154 149 143 138 138 136 136 128 124 115 110 112 117 116 131 142 147 156 160 163 165 171 169 166 164 162 160 159 156 154
179 183 178 171 172 169 162 165 165 169 172 172 169 171 170 164 167 165 157 156 154 149 140 127 127 131 126 133 152 160 168 174 175 175 178 179 178 177 175 173 170 168 168
185 185 177 177 178 175 176 178 175 181 183 180 181 186 183 180 178 176 178 177 181 174 161 146 143 143 137 143 156 166 176 179 183 184 187 190 190 190 188 187 184 183 184
187 182 179 182 180 181 185 190 189 187 188 190 192 193 189 191 189 185 186 193 197 179 159 141 132 126 131 140 157 170 173 178 183 189 191 194 200 202 201 200 198 198 197
182 181 183 188 185 190 190 191 192 190 192 200 201 198 198 199 195 185 189 203 198 180 168 154 143 134 135 142 160 179 172 178 189 196 198 202 204 210 213 213 212 211 210
186 182 181 185 186 193 192 187 193 196 199 203 203 204 205 202 198 191 195 201 187 177 178 179 156 154 160 163 169 172 188 196 199 205 210 213 213 216 220 224 224 223 222
187 182 180 188 189 184 179 171 181 193 200 201 205 209 208 203 196 191 194 195 182 173 181 172 160 142 149 156 154 133 223 225 216 218 222 221 222 225 226 228 229 231 231
184 178 181 191 189 177 174 181 189 203 203 201 208 210 205 200 194 189 191 186 183 185 188 175 157 149 148 132 107 54 351 281 234 233 229 227 230 230 229 229 229 230 234
188 185 184 190 187 185 188 183 180 179 196 206 206 207 208 202 195 195 191 190 186 183 180 178 161 152 168 163 146 127 344 315 275 235 224 228 233 231 232 232 230 230 232
188 191 192 186 185 183 172 150 135 129 137 182 203 208 209 205 202 199 196 191 188 187 191 191 179 170 179 191 178 155 165 222 266 279 233 230 229 226 234 235 232 233 234
190 186 179 175 178 175 168 171 174 184 194 203 200 204 203 204 204 204 199 194 191 191 194 196 188 182 171 188 197 203 187 164 175 255 282 246 236 233 235 236 236 234 233
174 176 175 173 175 175 178 184 187 196 200 186 183 190 199 203 204 205 203 199 196 195 198 197 188 190 188 189 187 179 180 173 183 188 250 274 263 243 235 234 236 237 234
154 162 168 173 181 180 183 187 191 195 194 188 193 197 201 207 206 207 205 202 201 200 201 201 197 197 200 195 195 189 179 179 192 190 218 242 257 268 250 238 234 236 235
Height
1523 1525 1527 1529 1531 1532 1533 1534 1535 1536 1537 1538 1539 1540 1541 1542 1543 1544 1544 1545 1546 1547 1548 1549 1550 1551 1551 1552 1553 1554 1555 1556 1557 1558 1559 1560 1561 1562 1563 1564 1565 1566 1568
1523 1526 1529 1531 1532 1534 1535 1536 1537 1538 1539 1540 1541 1542 1543 1544 1545 1546 1547 1548 1549 1550 1550 1551 1552 1553 1554 1555 1556 1557 1558 1559 1560 1560 1561 1563 1564 1564 1566 1567 1568 1569 1570
1524 1527 1530 1532 1534 1536 1537 1539 1540 1541 1542 1543 1544 1545 1546 1547 1548 1549 1550 1550 1551 1552 1553 1554 1555 1556 1557 1558 1559 1560 1560 1561 1562 1563 1564 1565 1566 1567 1568 1569 1571 1572 1573
1526 1529 1531 1534 1536 1538 1539 1541 1542 1543 1544 1545 1546 1547 1548 1549 1550 1551 1552 1553 1554 1554 1555 1557 1558 1559 1560 1561 1562 1562 1563 1564 1565 1566 1567 1568 1569 1570 1571 1572 1573 1574 1576
1527 1530 1533 1535 1538 1539 1541 1543 1544 1545 1546 1547 1548 1549 1551 1552 1552 1553 1554 1555 1556 1557 1558 1559 1560 1561 1563 1564 1564 1565 1566 1567 1567 1568 1569 1570 1571 1572 1574 1574 1576 1577 1578
1529 1532 1535 1537 1539 1541 1543 1545 1546 1547 1549 1550 1551 1552 1553 1554 1555 1556 1557 1558 1559 1560 1561 1562 1563 1564 1565 1566 1567 1568 1568 1569 1570 1571 1572 1573 1574 1575 1576 1577 1578 1579 1580
1531 1534 1536 1539 1541 1543 1545 1546 1548 1549 1550 1552 1553 1554 1555 1556 1557 1558 1559 1560 1561 1562 1563 1565 1566 1567 1568 1569 1570 1570 1571 1572 1572 1573 1574 1575 1576 1578 1578 1579 1580 1582 1583
1533 1536 1538 1540 1542 1544 1546 1548 1550 1551 1552 1553 1554 1556 1557 1558 1559 1560 1561 1563 1564 1565 1566 1567 1568 1570 1571 1572 1572 1573 1573 1574 1575 1575 1576 1577 1579 1580 1581 1582 1583 1584 1585
1534 1537 1539 1541 1544 1546 1547 1549 1551 1552 1554 1555 1556 1557 1559 1560 1561 1562 1564 1565 1566 1567 1568 1570 1571 1572 1573 1574 1575 1575 1576 1576 1577 1578 1579 1580 1581 1582 1583 1584 1585 1586 1587
1535 1538 1540 1543 1545 1547 1549 1550 1552 1554 1555 1556 1558 1559 1560 1562 1563 1564 1566 1567 1568 1569 1570 1572 1573 1574 1575 1576 1577 1577 1578 1579 1579 1580 1581 1582 1583 1584 1585 1586 1587 1588 1589
1536 1538 1541 1543 1546 1548 1550 1551 1553 1555 1556 1558 1559 1561 1562 1563 1564 1566 1567 1568 1570 1571 1572 1574 1575 1576 1577 1578 1579 1580 1580 1581 1581 1582 1583 1584 1585 1586 1587 1588 1589 1590 1591
1535 1538 1541 1544 1546 1548 1550 1552 1554 1556 1557 1559 1560 1561 1563 1564 1566 1567 1568 1570 1571 1572 1574 1575 1577 1578 1579 1580 1581 1581 1582 1583 1583 1584 1585 1585 1586 1587 1588 1589 1590 1591 1592
1535 1538 1541 1544 1546 1549 1551 1552 1554 1556 1558 1559 1561 1562 1564 1565 1567 1568 1570 1571 1572 1574 1575 1576 1578 1579 1580 1582 1582 1583 1584 1584 1585 1586 1586 1587 1588 1589 1590 1590 1591 1592 1593
1535 1538 1541 1544 1546 1549 1551 1553 1555 1557 1558 1560 1561 1563 1565 1566 1568 1569 1571 1572 1573 1575 1576 1577 1579 1580 1582 1583 1584 1584 1585 1586 1586 1587 1587 1588 1589 1590 1590 1591 1592 1593 1594
1535 1538 1541 1544 1546 1548 1551 1553 1555 1557 1559 1560 1562 1564 1565 1567 1568 1570 1571 1573 1574 1576 1577 1578 1580 1581 1582 1584 1585 1585 1586 1587 1587 1588 1588 1589 1589 1590 1591 1592 1593 1594 1595
1535 1538 1541 1544 1546 1548 1550 1553 1555 1557 1558 1560 1562 1564 1566 1567 1569 1571 1572 1574 1575 1576 1578 1579 1580 1582 1583 1584 1585 1586 1587 1587 1588 1588 1589 1589 1590 1591 1591 1592 1593 1594 1595
1534 1537 1540 1543 1546 1548 1550 1552 1554 1556 1558 1560 1562 1563 1565 1567 1569 1571 1572 1574 1575 1577 1578 1579 1581 1582 1583 1584 1585 1586 1587 1587 1588 1589 1589 1590 1590 1591 1591 1592 1593 1594 1595
1534 1537 1540 1542 1544 1547 1550 1552 1554 1556 1558 1559 1561 1563 1565 1566 1568 1570 1572 1574 1575 1577 1578 1579 1580 1582 1583 1584 1585 1586 1587 1587 1588 1589 1589 1590 1590 1591 1591 1592 1593 1594 1594
1533 1535 1538 1541 1543 1546 1548 1550 1553 1555 1557 1558 1560 1562 1564 1566 1567 1569 1571 1573 1575 1576 1578 1579 1580 1581 1582 1584 1585 1585 1586 1587 1587 1588 1589 1589 1590 1590 1591 1592 1592 1593 1594
1532 1534 1536 1539 1542 1544 1547 1549 1551 1553 1555 1556 1558 1560 1563 1565 1566 1568 1570 1572 1574 1575 1577 1578 1579 1581 1582 1583 1584 1584 1585 1586 1586 1587 1588 1589 1589 1590 1590 1591 1592 1592 1593
1530 1532 1535 1537 1540 1542 1544 1546 1548 1550 1552 1554 1556 1558 1561 1563 1565 1567 1569 1570 1572 1574 1575 1577 1578 1579 1580 1582 1583 1583 1584 1584 1585 1586 1586 1587 1588 1588 1589 1590 1590 1591 1592
1527 1530 1532 1535 1538 1540 1542 1544 1546 1548 1550 1552 1554 1556 1558 1561 1563 1565 1567 1569 1570 1572 1573 1575 1576 1577 1579 1580 1581 1582 1582 1584 1583 1584 1584 1585 1586 1586 1587 1588 1589 1589 1590
1524 1527 1530 1532 1535 1537 1540 1542 1544 1546 1548 1550 1551 1553 1555 1558 1560 1562 1564 1566 1568 1569 1571 1572 1574 1575 1576 1578 1579 1580 1581 1580 1581 1582 1582 1583 1583 1584 1585 1586 1586 1587 1588
1521 1524 1528 1530 1533 1535 1537 1539 1541 1542 1544 1546 1549 1551 1553 1555 1558 1560 1562 1564 1565 1567 1568 1570 1571 1573 1574 1575 1576 1577 1579 1579 1579 1579 1580 1581 1581 1582 1582 1583 1584 1585 1585
1520 1523 1525 1528 1530 1532 1534 1536 1538 1540 1542 1544 1546 1548 1550 1552 1554 1556 1558 1560 1562 1564 1565 1567 1568 1570 1571 1572 1574 1575 1576 1576 1577 1578 1577 1578 1579 1579 1580 1580 1581 1582 1582
1518 1520 1522 1525 1527 1529 1531 1534 1536 1538 1540 1541 1543 1545 1547 1549 1551 1553 1555 1556 1558 1560 1562 1564 1565 1567 1568 1569 1570 1572 1573 1573 1574 1575 1575 1575 1576 1576 1577 1577 1578 1579 1579